Weather History for Niagara Falls, NY

Change the Weather History Date:

Monday, October 7, 2013

  Actual Average Record
Temperature  
Mean Temperature 60 °F -  
Max Temperature 73 °F 61 °F 76 °F (1990)
Min Temperature 46 °F 42 °F 28 °F (1999)
Degree Days  
Heating Degree Days 6    
Growing Degree Days 10 (Base 50)    
Moisture  
Dew Point 51 °F    
Average Humidity 80    
Maximum Humidity 96    
Minimum Humidity 56    
Precipitation  
Precipitation 0.44 in - - ()
Sea Level Pressure  
Sea Level Pressure 29.77 in    
Wind  
Wind Speed 13 mph (WSW)    
Max Wind Speed 30 mph    
Max Gust Speed 39 mph    
Visibility 8 miles    
Events Rain    
Averages and records for this station are not official NWS values.
T = Trace of Precipitation, MM = Missing Value Source: NWS Daily Summary

Daily Weather History Graph

Daily Weather History Graph

Search for Another Location

Airport:

Trip Planner

Search our weather history database for the weather conditions in past years. The results will help you decide how hot, cold, wet, or windy it might be!

Date:

Astronomy

Oct. 07, 2013 Rise Set
Actual Time 7:20 AM EDT 6:46 PM EDT
Civil Twilight 6:51 AM EDT 7:14 PM EDT
Nautical Twilight 6:18 AM EDT 7:47 PM EDT
Astronomical Twilight 5:45 AM EDT 8:20 PM EDT
Moon 10:13 AM EDT (10/7) 8:24 PM EDT (10/7)
Length of Visible Light 12h 22m
Length of Day
11h 25m
Waxing Crescent, 8% of the Moon is Illuminated
Oct 7
Waxing Crescent
Oct 11
First Quarter
Oct 18
Full
Oct 26
Last Quarter
Nov 3
New

Hourly Weather History & Observations

Time (EDT) Temp. Dew Point Humidity Pressure Visibility Wind Dir Wind Speed Gust Speed Precip Events Conditions
12:53 AM 73.9 °F 61.0 °F 64% - 10.0 mi South 12.7 mph - N/A   Scattered Clouds
1:53 AM 70.0 °F 62.1 °F 76% - 10.0 mi WSW 13.8 mph - N/A   Clear
2:51 AM 66.2 °F 62.6 °F 88% - 10.0 mi SW 11.5 mph - N/A   Mostly Cloudy
2:53 AM 66.9 °F 63.0 °F 87% - 10.0 mi SW 10.4 mph - N/A   Mostly Cloudy
3:37 AM 64.4 °F 62.6 °F 94% - 10.0 mi SSW 11.5 mph - N/A   Overcast
3:53 AM 64.9 °F 61.0 °F 87% - 10.0 mi SW 11.5 mph - N/A   Overcast
4:04 AM 64.4 °F 60.8 °F 88% - 10.0 mi SW 11.5 mph - N/A   Overcast
4:41 AM 62.6 °F 57.2 °F 82% - 10.0 mi WSW 12.7 mph - N/A   Overcast
4:53 AM 63.0 °F 54.0 °F 72% - 10.0 mi WSW 13.8 mph - N/A   Overcast
5:38 AM 60.8 °F 53.6 °F 77% - 10.0 mi WSW 15.0 mph - 0.00 in Rain Light Rain
5:53 AM 59.0 °F 54.0 °F 83% - 4.0 mi West 13.8 mph - 0.02 in Rain Rain
6:53 AM 57.0 °F 55.0 °F 93% - 3.0 mi WSW 8.1 mph - 0.08 in Rain Heavy Rain
7:03 AM 57.2 °F 55.4 °F 94% 29.68 in 4.0 mi SW 6.9 mph - 0.04 in Rain Rain
7:15 AM 57.2 °F 55.4 °F 94% 29.68 in 4.0 mi SW 8.1 mph - 0.07 in Rain Rain
7:36 AM 57.2 °F 55.4 °F 94% 29.68 in 4.0 mi WSW 9.2 mph - 0.12 in Rain Rain
7:53 AM 57.0 °F 55.9 °F 96% 29.70 in 4.0 mi SW 6.9 mph - 0.14 in Rain Rain
8:40 AM 57.2 °F 55.4 °F 94% 29.68 in 4.0 mi WSW 10.4 mph - 0.06 in Rain Light Rain
8:53 AM 57.9 °F 55.0 °F 90% 29.70 in 5.0 mi West 10.4 mph - 0.08 in Rain Rain
9:09 AM 57.2 °F 53.6 °F 88% 29.68 in 6.0 mi West 10.4 mph - 0.01 in Rain Light Rain
9:19 AM 57.2 °F 53.6 °F 88% 29.68 in 6.0 mi WSW 10.4 mph - 0.01 in Rain Light Rain
9:53 AM 55.0 °F 53.1 °F 93% 29.70 in 5.0 mi WSW 13.8 mph - 0.05 in Rain Rain
9:59 AM 55.4 °F 51.8 °F 88% 29.70 in 3.0 mi WSW 13.8 mph - 0.01 in Rain Rain
10:26 AM 55.4 °F 51.8 °F 88% 29.72 in 6.0 mi WSW 13.8 mph - 0.05 in Rain Light Rain
10:41 AM 55.4 °F 51.8 °F 88% 29.72 in 7.0 mi West 11.5 mph 19.6 mph 0.06 in Rain Light Rain
10:53 AM 55.0 °F 51.1 °F 86% 29.71 in 7.0 mi WSW 13.8 mph - 0.07 in Rain Light Rain
11:07 AM 55.4 °F 51.8 °F 88% 29.71 in 7.0 mi WSW 13.8 mph - 0.00 in   Overcast
11:18 AM 55.4 °F 51.8 °F 88% 29.70 in 7.0 mi WSW 13.8 mph - 0.00 in   Overcast
11:41 AM 55.4 °F 51.8 °F 88% 29.72 in 7.0 mi WSW 18.4 mph 24.2 mph 0.00 in   Mostly Cloudy
11:53 AM 57.0 °F 51.1 °F 81% 29.71 in 7.0 mi WSW 24.2 mph 29.9 mph 0.00 in   Mostly Cloudy
12:53 PM 55.0 °F 42.1 °F 62% 29.72 in 10.0 mi WSW 23.0 mph 35.7 mph N/A   Mostly Cloudy
1:53 PM 57.9 °F 44.1 °F 60% 29.70 in 10.0 mi SW 19.6 mph 29.9 mph N/A   Mostly Cloudy
2:45 PM 57.2 °F 44.6 °F 63% 29.72 in 10.0 mi WSW 28.8 mph 39.1 mph 0.00 in Rain Light Rain
2:53 PM 55.9 °F 46.0 °F 69% 29.73 in 10.0 mi SW 24.2 mph 39.1 mph 0.00 in Rain Light Rain
3:05 PM 57.2 °F 46.4 °F 67% 29.73 in 10.0 mi WSW 21.9 mph 31.1 mph 0.00 in   Mostly Cloudy
3:28 PM 57.2 °F 44.6 °F 63% 29.75 in 10.0 mi WSW 20.7 mph 29.9 mph 0.00 in Rain Light Rain
3:45 PM 55.4 °F 41.0 °F 58% 29.76 in 10.0 mi WSW 24.2 mph 31.1 mph 0.00 in   Mostly Cloudy
3:53 PM 55.9 °F 42.1 °F 60% 29.77 in 10.0 mi WSW 29.9 mph 39.1 mph 0.00 in   Mostly Cloudy
4:53 PM 57.9 °F 42.1 °F 56% 29.79 in 10.0 mi WSW 20.7 mph 29.9 mph N/A   Mostly Cloudy
5:53 PM 57.0 °F 42.1 °F 57% 29.83 in 10.0 mi WSW 19.6 mph 27.6 mph N/A   Scattered Clouds
6:53 PM 57.0 °F 43.0 °F 59% 29.86 in 10.0 mi WSW 15.0 mph 23.0 mph N/A   Overcast
7:15 PM 55.4 °F 44.6 °F 67% 29.87 in 10.0 mi West 15.0 mph 24.2 mph 0.00 in Rain Light Rain
7:53 PM 53.1 °F 46.9 °F 80% 29.92 in 10.0 mi West 12.7 mph - 0.00 in Rain Light Rain
8:07 PM 53.6 °F 46.4 °F 77% 29.92 in 10.0 mi West 13.8 mph - 0.00 in   Mostly Cloudy
8:53 PM 52.0 °F 46.0 °F 80% 29.97 in 10.0 mi WNW 11.5 mph - 0.00 in   Scattered Clouds
9:53 PM 48.9 °F 45.0 °F 86% 30.01 in 10.0 mi West 8.1 mph - N/A   Partly Cloudy
10:53 PM 46.9 °F 44.1 °F 90% 30.05 in 10.0 mi West 5.8 mph - N/A   Partly Cloudy
11:53 PM 48.9 °F 45.0 °F 86% 30.07 in 10.0 mi West 6.9 mph - N/A   Scattered Clouds